Tracking 20712 objects as of 29-May-2020
HD Live streaming from Space Station
objects crossing your sky now

FENGYUN 1C DEB

Track FENGYUN 1C DEB now!
10-day predictions


NORAD ID: 35104
Int'l Code: 1999-025DKG
Perigee: 821.6 km
Apogee: 868.1 km
Inclination: 98.7 °
Period: 101.7 minutes
Semi major axis: 7215 km
RCS: 0.011 m2 (small)
Launch date: May 10, 1999
Source: People's Republic of China (PRC)
Launch site: Taiyaun Space Center, China (TSC)

Note: This is SATELLITE DEBRIS
aabbcc
Your satellite tracking list
Your tracking list is empty




NASA's NSSDC Master Catalog

Two Line Element Set (TLE):
1 35104U 99025DKG 20142.37830694  .00000135  00000-0  89718-4 0  9993
2 35104  98.7363 174.8954 0032198 219.0027 153.7254 14.16350229612114
Source of the keplerian elements: AFSPC